Weather History for KARW - January, 2012

Change the Weather History Date:

Monday, January 2, 2012

  Actual Average (KNBC) Record (KNBC)
Temperature  
Mean Temperature 52 °F -  
Max Temperature 60 °F 59 °F 78 °F (1952)
Min Temperature 44 °F 41 °F 23 °F (2001)
Degree Days  
Heating Degree Days 13    
Growing Degree Days 2 (Base 50)    
Moisture  
Dew Point 28 °F    
Average Humidity 44    
Maximum Humidity 88    
Minimum Humidity 21    
Precipitation  
Precipitation 0.00 in - - ()
Sea Level Pressure  
Sea Level Pressure 30.08 in    
Wind  
Wind Speed 12 mph (West)    
Max Wind Speed 22 mph    
Max Gust Speed 30 mph    
Visibility 10 miles    
Events      
Averages and records for this station are not official NWS values.
T = Trace of Precipitation, MM = Missing Value Source: NWS Daily Summary

Daily Weather History Graph

Daily Weather History Graph

Search for Another Location

Airport or City:

Trip Planner

Search our weather history database for the weather conditions in past years. The results will help you decide how hot, cold, wet, or windy it might be!

Date:

Astronomy

Jan. 02, 2012 Rise Set
Actual Time 7:24 AM EST 5:28 PM EST
Civil Twilight 6:57 AM EST 5:55 PM EST
Nautical Twilight 6:26 AM EST 6:26 PM EST
Astronomical Twilight 5:56 AM EST 6:56 PM EST
Moon 12:36 PM EST (1/2) 1:25 AM EST (1/2)
Length of Visible Light 10h 58m
Length of Day
10h 04m
Waxing Gibbous, 63% of the Moon is Illuminated
Jan 2
Waxing Gibbous
Jan 9
Full
Jan 16
Last Quarter
Jan 23
New
Jan 30
First Quarter

Hourly Weather History & Observations

Time (EST) Temp. Windchill Dew Point Humidity Pressure Visibility Wind Dir Wind Speed Gust Speed Precip Events Conditions
12:15 AM 60.8 °F - 57.2 °F 88% 30.06 in 10.0 mi WSW 8.1 mph - N/A   Overcast
12:35 AM 60.8 °F - 57.2 °F 88% 30.05 in 10.0 mi West 9.2 mph - N/A   Overcast
1:15 AM 59.0 °F - 51.8 °F 77% 30.06 in 10.0 mi WNW 11.5 mph - N/A   Scattered Clouds
1:35 AM 59.0 °F - 51.8 °F 77% 30.05 in 10.0 mi West 11.5 mph - N/A   Scattered Clouds
1:55 AM 57.2 °F - 46.4 °F 67% 30.06 in 10.0 mi WNW 12.7 mph 17.3 mph N/A   Scattered Clouds
2:15 AM 55.4 °F - 44.6 °F 67% 30.07 in 10.0 mi WNW 11.5 mph 19.6 mph N/A   Scattered Clouds
2:35 AM 55.4 °F - 42.8 °F 63% 30.07 in 10.0 mi WNW 13.8 mph 17.3 mph N/A   Mostly Cloudy
3:15 AM 53.6 °F - 42.8 °F 67% 30.06 in 10.0 mi WNW 12.7 mph 17.3 mph N/A   Overcast
3:35 AM 53.6 °F - 39.2 °F 58% 30.07 in 10.0 mi West 12.7 mph - N/A   Mostly Cloudy
3:55 AM 51.8 °F - 37.4 °F 58% 30.08 in 10.0 mi WNW 11.5 mph - N/A   Scattered Clouds
4:15 AM 51.8 °F - 35.6 °F 54% 30.09 in 10.0 mi WNW 13.8 mph 23.0 mph N/A   Clear
4:35 AM 50.0 °F - 33.8 °F 54% 30.09 in 10.0 mi WNW 10.4 mph - N/A   Clear
4:55 AM 50.0 °F - 33.8 °F 54% 30.09 in 10.0 mi WNW 13.8 mph 19.6 mph N/A   Clear
5:35 AM 48.2 °F - 32.0 °F 54% 30.10 in 10.0 mi WNW 11.5 mph - N/A   Clear
5:55 AM 48.2 °F - 32.0 °F 54% 30.10 in 10.0 mi WNW 11.5 mph 16.1 mph N/A   Clear
6:15 AM 46.4 °F 41.5 °F 30.2 °F 53% 30.11 in 10.0 mi WNW 10.4 mph - N/A   Clear
6:35 AM 46.4 °F 41.5 °F 30.2 °F 53% 30.11 in 10.0 mi West 10.4 mph - N/A   Clear
6:55 AM 44.6 °F 40.2 °F 30.2 °F 57% 30.11 in 10.0 mi WNW 8.1 mph - N/A   Clear
7:15 AM 44.6 °F 39.2 °F 30.2 °F 57% 30.12 in 10.0 mi West 10.4 mph - N/A   Clear
7:35 AM 44.6 °F 39.7 °F 30.2 °F 57% 30.13 in 10.0 mi West 9.2 mph - N/A   Clear
7:55 AM 44.6 °F 38.8 °F 30.2 °F 57% 30.13 in 10.0 mi WNW 11.5 mph - N/A   Clear
8:15 AM 46.4 °F 41.9 °F 30.2 °F 53% 30.14 in 10.0 mi West 9.2 mph - N/A   Clear
8:35 AM 46.4 °F 40.4 °F 30.2 °F 53% 30.15 in 10.0 mi WNW 13.8 mph - N/A   Clear
8:55 AM 48.2 °F - 30.2 °F 50% 30.15 in 10.0 mi WNW 13.8 mph 20.7 mph N/A   Clear
9:15 AM 48.2 °F - 28.4 °F 46% 30.16 in 10.0 mi WNW 15.0 mph 24.2 mph N/A   Clear
9:35 AM 50.0 °F - 28.4 °F 43% 30.15 in 10.0 mi WNW 16.1 mph 24.2 mph N/A   Clear
9:55 AM 50.0 °F - 26.6 °F 40% 30.16 in 10.0 mi WNW 15.0 mph 21.9 mph N/A   Clear
10:15 AM 50.0 °F - 26.6 °F 40% 30.16 in 10.0 mi WNW 16.1 mph 24.2 mph N/A   Clear
10:35 AM 50.0 °F - 26.6 °F 40% 30.15 in 10.0 mi WNW 15.0 mph 23.0 mph N/A   Clear
11:15 AM 51.8 °F - 26.6 °F 38% 30.13 in 10.0 mi WNW 16.1 mph 25.3 mph N/A   Clear
11:35 AM 51.8 °F - 24.8 °F 35% 30.12 in 10.0 mi WNW 18.4 mph 25.3 mph N/A   Clear
11:55 AM 51.8 °F - 23.0 °F 33% 30.11 in 10.0 mi WNW 13.8 mph - N/A   Clear
12:15 PM 51.8 °F - 23.0 °F 33% 30.09 in 10.0 mi NW 16.1 mph 25.3 mph N/A   Clear
12:55 PM 53.6 °F - 21.2 °F 28% 30.07 in 10.0 mi WNW 15.0 mph 21.9 mph N/A   Clear
1:15 PM 53.6 °F - 21.2 °F 28% 30.06 in 10.0 mi WNW 18.4 mph 24.2 mph N/A   Clear
1:35 PM 53.6 °F - 21.2 °F 28% 30.05 in 10.0 mi West 21.9 mph 26.5 mph N/A   Clear
1:55 PM 53.6 °F - 19.4 °F 26% 30.04 in 10.0 mi West 13.8 mph 21.9 mph N/A   Clear
2:15 PM 53.6 °F - 17.6 °F 24% 30.03 in 10.0 mi WSW 16.1 mph 20.7 mph N/A   Clear
2:55 PM 55.4 °F - 15.8 °F 21% 30.03 in 10.0 mi West 15.0 mph 21.9 mph N/A   Clear
3:15 PM 53.6 °F - 15.8 °F 22% 30.03 in 10.0 mi West 17.3 mph 21.9 mph N/A   Clear
3:35 PM 53.6 °F - 15.8 °F 22% 30.03 in 10.0 mi West 20.7 mph 26.5 mph N/A   Clear
3:55 PM 53.6 °F - 15.8 °F 22% 30.03 in 10.0 mi West 18.4 mph 26.5 mph N/A   Clear
4:15 PM 53.6 °F - 15.8 °F 22% 30.03 in 10.0 mi West 15.0 mph 27.6 mph N/A   Clear
4:35 PM 51.8 °F - 15.8 °F 24% 30.03 in 10.0 mi West 15.0 mph 29.9 mph N/A   Clear
4:55 PM 51.8 °F - 17.6 °F 26% 30.03 in 10.0 mi West 16.1 mph 24.2 mph N/A   Clear
5:15 PM 50.0 °F - 17.6 °F 28% 30.03 in 10.0 mi West 15.0 mph 19.6 mph N/A   Clear
5:35 PM 50.0 °F - 17.6 °F 28% 30.03 in 10.0 mi West 18.4 mph 23.0 mph N/A   Clear
5:55 PM 48.2 °F - 17.6 °F 30% 30.04 in 10.0 mi West 10.4 mph - N/A   Clear
6:15 PM 48.2 °F - 19.4 °F 32% 30.04 in 10.0 mi West 10.4 mph - N/A   Clear
6:35 PM 46.4 °F 41.9 °F 19.4 °F 34% 30.05 in 10.0 mi WSW 9.2 mph - N/A   Clear
6:55 PM 46.4 °F 42.4 °F 19.4 °F 34% 30.05 in 10.0 mi WSW 8.1 mph - N/A   Clear
7:15 PM 46.4 °F 42.4 °F 19.4 °F 34% 30.05 in 10.0 mi WSW 8.1 mph - N/A   Clear
7:35 PM 46.4 °F 41.9 °F 19.4 °F 34% 30.05 in 10.0 mi WSW 9.2 mph - N/A   Clear
7:55 PM 46.4 °F 42.4 °F 21.2 °F 37% 30.05 in 10.0 mi WSW 8.1 mph - N/A   Clear
8:15 PM 46.4 °F 41.9 °F 21.2 °F 37% 30.05 in 10.0 mi SW 9.2 mph - N/A   Clear
8:35 PM 44.6 °F 39.7 °F 21.2 °F 39% 30.05 in 10.0 mi SW 9.2 mph - N/A   Clear
8:55 PM 44.6 °F 39.7 °F 21.2 °F 39% 30.05 in 10.0 mi WSW 9.2 mph - N/A   Clear
9:15 PM 44.6 °F 39.2 °F 21.2 °F 39% 30.05 in 10.0 mi WSW 10.4 mph - N/A   Clear
9:35 PM 44.6 °F 38.1 °F 21.2 °F 39% 30.05 in 10.0 mi WSW 13.8 mph 21.9 mph N/A   Clear
9:55 PM 44.6 °F 38.1 °F 19.4 °F 37% 30.06 in 10.0 mi West 13.8 mph - N/A   Clear
10:15 PM 42.8 °F 36.2 °F 17.6 °F 36% 30.06 in 10.0 mi WNW 12.7 mph - N/A   Clear
10:35 PM 42.8 °F 37.5 °F 15.8 °F 34% 30.06 in 10.0 mi West 9.2 mph - N/A   Clear
10:55 PM 42.8 °F 36.2 °F 15.8 °F 34% 30.07 in 10.0 mi West 12.7 mph - N/A   Clear
11:15 PM 41.0 °F 34.7 °F 15.8 °F 36% 30.07 in 10.0 mi WNW 10.4 mph - N/A   Clear
11:35 PM 42.8 °F 36.2 °F 14.0 °F 31% 30.08 in 10.0 mi NW 12.7 mph 19.6 mph N/A   Mostly Cloudy
11:55 PM 41.0 °F 32.2 °F 14.0 °F 33% 30.09 in 10.0 mi NNW 18.4 mph 25.3 mph N/A   Scattered Clouds